Satellite-Ground Cal/Val Site Overpasses Predictions

Prediction of Satellite NPP Overpassing Cal/Val Site: Antarctic Dome C

Ground Cal/Val Site Location: Latitude: -75.10, Longitude: 123.35; Satellite-Ground Site NADIR distance within 100 km.

Table of predicted overpasses for the next 14.0 days since TLE Epoch: 11/25/2017
Interval Starting Time Ending Time Minimum Distance Time Minimum Distance (km)
1 11/26/2017 07:31:56 11/26/2017 07:32:25 11/26/2017 07:32:11 3.46
2 11/29/2017 14:55:22 11/29/2017 14:55:50 11/29/2017 14:55:36 22.15
3 11/30/2017 14:36:40 11/30/2017 14:36:55 11/30/2017 14:36:47 84.97
4 12/01/2017 07:38:12 12/01/2017 07:38:38 12/01/2017 07:38:25 39.23
5 12/02/2017 07:19:25 12/02/2017 07:19:46 12/02/2017 07:19:35 70.71
6 12/04/2017 15:01:40 12/04/2017 15:02:03 12/04/2017 15:01:51 59.33
7 12/05/2017 14:42:48 12/05/2017 14:43:14 12/05/2017 14:43:01 50.00
8 12/06/2017 07:44:30 12/06/2017 07:44:49 12/06/2017 07:44:40 74.42


NCC Satellite Cal/Val Overpasses Prediction Service
